Location: Ernez
(36.4595°N, 29.8755°E)
Time: 00:31:36
(UTC+00:00)

ATLAS CENTAUR R/B - Pass Details

Date: 13 November 2025
Orbit: 343 x 424 km, 64.6° (Epoch: 07 December)

Event Time Altitude Azimuth Distance (km) Brightness Sun altitude
Rises 15:27:23 0° 255° (WSW) 2,424 7.3 -7.3°
Reaches altitude 10° 15:30:33 10° 287° (WNW) 1,572 4.6 -7.9°
Maximum altitude 15:32:03 12° 312° (NW) 1,443 3.9 -8.2°
Drops below altitude 10° 15:33:34 10° 338° (NNW) 1,582 3.7 -8.5°
Sets 15:36:48 0° 10° (N) 2,459 4.4 -9.1°
